User: anonymous   Login
Location: Ch�teau-Arnoux
(44.0814°N, 6.0027°E)
Time: 10:48:39
(UTC+00:00)
Language:

Cosmos 1898 Rocket - Orbit

View from above orbital plane
View from above orbital plane
View from above satellite
View from above satellite

Ground track
Ground track

The orbit data is extracted from the following two-line orbital elements,

1 18586U 87098B   20028.90178550 +.00000021 +00000-0 +16031-4 0  9995
2 18586 074.0085 335.3349 0020856 169.6789 190.4797 14.36890472684325
Epoch (UTC): 28 January 2020 21:38:34
Eccentricity: 0.0020856
inclination: 74.0085°
perigee height: 754 km
apogee height: 784 km
right ascension of ascending node: 335.3349°
argument of perigee: 169.6789°
revolutions per day: 14.36890472
mean anomaly at epoch: 190.4797°
orbit number at epoch: 68432

The dashed part of the orbit path shows where the satellite is in the earth's shadow,  

DLR